SCP
0 0 0 0 0 0 0 0 0 0 1 1 1 1 1 1 1 1 2 3 2 3 4 5 5 5 6 8 7 6 7 8 7 6 5 5 4 4 4 6 8 8 8 8
0 0 0 0 0 0 0 0 0 0 0 1 1 1 1 1 1 2 2 2 2 2 3 4 4 5 7 7 7 7 8 8 7 6 5 5 4 4 4 5 7 8 8 8
0 0 0 0 0 0 0 0 0 0 0 1 1 2 2 2 2 2 3 3 2 2 2 2 3 5 7 7 7 8 9 9 8 7 5 4 4 4 4 5 6 7 7 8
0 0 0 0 0 0 0 0 0 0 0 0 1 1 2 2 2 3 3 3 2 2 2 2 3 4 5 5 6 8 10 9 8 6 5 4 5 5 5 5 5 6 6 7
0 0 0 0 0 0 0 0 0 0 0 0 1 1 2 2 3 3 2 2 2 3 3 2 3 3 3 3 5 8 9 8 7 5 5 5 6 6 6 5 5 5 6 6
0 0 0 0 0 0 0 0 0 0 0 0 0 1 1 2 2 2 2 2 2 3 3 3 3 3 3 4 6 8 8 7 6 5 5 5 6 6 5 5 5 5 5 5
0 0 0 0 0 0 0 0 0 0 0 0 0 1 1 1 1 2 2 2 2 2 2 3 3 3 4 5 7 8 7 6 5 5 5 5 4 4 4 4 4 5 4 3
0 0 0 0 0 0 0 0 0 0 0 0 0 1 1 1 1 2 2 2 2 2 3 3 4 5 6 7 7 7 6 6 6 5 5 4 4 4 3 3 4 4 3 3
0 0 0 0 0 0 0 0 0 0 0 0 1 1 1 1 1 2 2 2 2 3 4 5 5 6 7 7 7 7 7 8 8 7 6 5 4 4 3 3 3 3 3 3
0 0 0 0 0 0 0 0 0 0 0 0 1 1 2 2 2 4 4 3 3 4 5 6 6 6 7 6 6 6 7 9 9 8 7 5 4 3 3 2 2 2 3 3
0 0 0 0 0 0 0 0 0 0 0 0 1 1 2 2 4 6 7 6 6 6 7 6 6 5 5 4 4 4 5 8 9 9 7 5 4 3 3 3 3 3 3 3
0 0 0 0 0 0 0 0 0 0 0 0 1 1 2 2 4 7 7 7 7 7 6 5 4 4 3 2 2 2 3 5 7 8 7 5 4 4 4 4 3 3 3 3
0 0 0 0 0 0 0 0 0 0 0 0 1 1 1 2 3 4 5 5 5 5 4 3 3 3 2 2 1 1 2 3 4 5 5 5 4 5 5 4 4 3 4 4
1 1 1 0 0 0 0 0 0 0 0 0 1 1 1 1 2 2 3 3 3 3 3 3 3 2 2 1 1 1 1 1 2 2 3 3 4 5 5 4 3 3 3 3
1 1 1 0 0 0 0 0 0 0 0 0 1 1 1 2 2 2 2 2 2 2 3 3 3 3 2 1 1 1 1 1 1 1 1 1 3 4 4 3 3 3 3 2
2 2 1 1 0 0 0 0 0 0 1 1 1 1 2 2 2 2 2 2 1 2 3 4 5 4 3 2 1 1 1 1 1 1 1 1 2 2 3 3 3 3 3 3
1 2 1 1 1 0 1 1 1 1 1 1 1 1 2 1 1 1 2 1 1 1 2 5 6 5 4 3 3 2 1 1 1 1 1 1 1 2 2 2 3 4 4 5
1 1 1 1 1 1 1 1 1 1 1 2 2 2 2 2 1 1 2 1 1 1 2 5 6 6 4 3 4 4 2 1 1 1 2 2 2 2 2 3 4 5 5 5
2 2 1 1 0 1 1 1 1 1 2 2 2 2 2 2 1 1 1 1 1 2 2 4 5 5 3 3 3 3 2 2 2 2 2 3 3 3 3 4 5 5 5 5
1 2 1 1 1 1 1 1 1 1 2 2 2 2 2 2 2 2 2 2 2 2 2 3 3 3 2 2 2 2 2 1 1 1 2 2 3 3 4 4 5 5 5 4
1 1 1 1 1 1 1 1 1 1 1 1 1 1 1 2 2 3 3 2 2 2 2 2 3 2 2 2 3 3 2 1 1 1 1 2 3 3 3 3 4 5 4 3
1 1 1 1 1 1 1 1 1 1 1 1 1 1 1 1 2 2 3 3 3 3 2 2 2 2 2 3 4 5 4 2 1 1 1 2 3 2 2 2 3 3 3 2
1 1 1 1 1 1 1 1 1 1 1 1 1 1 1 1 1 1 2 3 3 3 2 2 2 2 2 2 4 5 5 3 2 1 2 2 2 2 1 2 2 2 2 1
1 1 1 1 1 1 2 2 1 1 1 1 1 1 1 1 1 1 2 2 3 3 3 3 3 2 2 2 3 4 5 3 2 2 2 2 2 1 1 2 2 1 1 1
1 1 1 1 2 2 2 2 1 1 1 1 1 1 1 1 1 2 3 3 3 3 3 2 2 2 2 1 2 3 4 3 3 2 2 2 1 1 1 1 1 1 1 1
0 0 1 1 2 2 2 1 1 1 1 1 1 1 1 1 1 2 3 3 3 3 3 2 2 2 1 1 1 2 3 3 2 2 2 1 1 1 1 1 1 1 0 0
Wind_Speed
12 11 10 9 7 9 10 10 10 6 5 5 6 4 6 7 6 5 4 4 4 3 3 4 3 3 3 2 2 1 1 1 0 1 1 1 2 1 1 1 1 1 2 2
11 13 10 9 9 10 11 11 9 5 3 4 5 4 5 6 6 7 6 4 4 4 3 3 2 2 2 2 1 1 1 1 1 0 1 2 2 2 2 1 1 2 3 3
12 7 5 9 11 11 12 10 6 5 8 8 7 6 6 5 5 6 5 4 4 4 3 3 1 1 2 2 1 1 2 1 1 0 1 2 1 1 1 1 1 2 3 3
11 9 8 10 11 8 10 8 7 8 9 7 7 5 5 7 7 6 5 4 3 3 3 2 1 1 2 1 1 2 2 1 1 0 1 2 2 2 2 2 1 2 2 2
9 8 9 10 9 8 9 9 9 11 11 10 8 6 5 8 6 6 4 3 2 2 2 2 1 2 1 1 2 2 2 1 1 0 1 2 3 2 2 2 1 2 2 2
10 8 7 7 8 7 8 9 10 11 9 10 9 6 3 5 6 6 5 3 3 2 2 2 2 2 2 2 2 3 2 2 1 1 1 2 3 3 3 2 2 2 1 1
10 10 8 8 8 8 8 7 6 6 6 5 4 3 3 6 6 6 4 4 4 3 2 2 2 3 3 2 2 2 2 1 1 0 1 1 2 3 2 2 2 2 1 1
9 7 6 6 6 6 7 7 5 6 6 5 6 2 5 8 8 6 5 4 4 3 2 3 3 3 2 3 3 2 1 1 0 0 1 1 2 2 1 2 2 2 1 1
7 6 3 3 5 6 7 6 6 8 10 8 3 5 5 6 6 5 5 4 4 2 2 3 3 3 3 3 3 2 2 1 0 0 1 1 1 2 2 2 2 2 1 1
7 8 5 3 6 8 6 5 4 5 7 6 2 3 5 6 5 5 3 2 3 3 3 3 3 3 3 2 2 2 1 1 0 1 1 1 1 1 1 2 2 2 2 2
6 7 7 5 6 5 5 5 5 6 6 6 4 2 5 5 5 5 3 3 3 4 3 3 2 3 3 2 2 2 2 1 1 1 1 2 1 1 1 1 1 1 1 1
4 6 7 5 3 4 5 5 5 5 6 6 5 1 6 6 5 5 4 4 4 4 4 3 3 3 3 2 2 2 2 2 1 1 1 1 1 1 1 1 1 1 1 1
5 4 6 5 4 4 5 5 6 6 6 6 5 2 6 5 5 5 4 4 4 4 4 4 3 3 3 2 2 2 2 2 2 1 1 1 1 1 1 1 1 1 1 1
5 5 7 7 5 4 5 6 6 6 5 5 3 0 4 3 4 5 4 3 4 4 4 3 3 3 2 2 2 2 2 2 2 2 1 1 1 1 1 1 1 1 1 1
4 7 9 9 9 8 7 6 7 7 6 5 3 2 2 3 4 4 3 3 4 4 4 3 3 2 2 1 1 1 1 1 1 1 1 1 1 1 1 1 1 1 2 2
2 6 9 10 9 8 8 7 7 6 5 3 2 1 3 5 4 4 3 3 3 4 4 3 3 2 2 1 1 1 1 1 2 1 1 1 1 1 1 1 1 1 2 2
3 5 8 9 8 8 8 6 5 4 3 3 2 1 3 4 3 3 3 3 3 3 3 3 3 2 1 1 1 1 1 1 1 1 1 1 2 2 2 2 2 2 2 2
6 6 6 9 8 9 3 3 3 2 2 3 4 3 3 3 4 5 5 4 4 3 3 3 3 2 2 2 2 1 1 1 2 2 2 2 1 1 1 1 2 2 2 2
6 7 7 7 8 8 4 2 3 1 2 4 4 4 4 3 5 5 5 5 4 4 3 2 2 3 3 3 2 2 2 2 2 3 3 3 3 3 2 2 2 2 2 2
8 7 7 8 9 7 1 1 3 2 1 4 5 4 3 2 1 3 4 4 4 4 3 3 2 3 2 2 2 2 2 2 3 3 3 3 3 3 2 2 2 2 2 2
8 8 9 10 9 4 2 2 1 2 2 5 5 4 3 3 3 3 3 3 4 4 3 2 2 2 2 2 1 1 2 2 3 3 3 2 3 2 2 2 2 2 3 3
5 5 6 6 7 3 4 3 3 4 4 4 4 4 4 5 4 4 4 3 3 3 2 2 2 2 2 1 1 1 2 2 2 3 3 3 2 3 3 2 2 3 3 3
3 3 3 2 1 5 6 6 5 3 2 3 3 4 4 3 3 3 4 3 3 2 2 1 1 1 1 1 1 1 1 2 2 2 2 3 3 2 3 2 2 3 3 3
2 1 2 1 3 4 4 4 3 2 2 2 3 3 3 2 3 3 3 2 2 2 1 1 0 1 1 1 1 1 1 1 2 2 3 2 3 3 2 2 3 3 3 3
5 4 3 2 2 3 2 2 3 3 3 3 3 3 2 2 2 3 2 2 1 2 2 1 1 1 2 1 2 1 1 1 2 3 3 3 3 3 2 2 2 2 1 2
5 4 4 2 2 2 1 1 2 3 3 3 3 2 2 1 1 1 1 1 1 1 1 2 2 2 2 2 2 2 1 1 2 3 4 4 3 3 2 2 2 2 1 1
Wind_Direction
229 233 246 257 255 269 284 284 279 259 214 223 227 207 189 179 177 171 174 175 143 120 125 107 97 79 64 64 75 90 105 116 168 230 234 248 248 250 250 230 210 220 247 246
246 241 249 265 267 264 269 270 271 288 282 255 251 231 213 186 177 168 169 169 151 145 145 115 107 98 84 74 90 124 123 132 177 235 272 259 249 247 242 249 216 226 237 247
246 257 248 254 258 260 265 271 273 282 271 249 241 244 212 194 170 154 154 171 175 160 146 134 127 93 98 87 84 88 105 102 137 229 265 278 275 273 270 253 234 241 239 240
251 250 244 249 256 260 273 277 271 265 262 265 251 269 182 169 176 160 162 177 171 146 130 135 137 110 80 83 91 97 97 95 117 212 278 284 288 286 277 257 245 258 248 243
253 243 237 246 261 259 274 281 268 264 263 266 251 252 194 171 169 161 161 177 123 113 105 127 120 102 90 89 87 91 84 71 65 27 311 299 304 295 292 283 258 263 263 258
268 263 256 258 264 262 269 276 267 260 259 260 256 251 188 168 164 146 140 130 102 80 76 82 85 83 65 53 65 73 73 55 40 2 331 307 311 312 314 313 300 291 285 273
251 245 236 240 255 252 254 272 283 276 247 258 266 256 137 124 115 112 111 102 96 79 62 77 58 56 47 40 52 54 61 49 33 353 325 314 301 299 311 321 321 312 302 301
272 255 230 217 241 263 261 260 270 282 288 290 262 199 123 109 102 100 101 95 94 94 85 82 69 64 56 42 38 37 54 32 14 337 313 298 289 302 340 339 328 325 329 352
292 285 250 197 236 259 268 275 285 282 279 277 239 129 126 116 107 97 93 93 92 94 89 82 81 67 50 43 43 28 34 38 296 260 232 266 343 356 356 339 346 357 351 355
265 278 264 201 233 230 260 285 299 285 291 291 268 179 153 145 130 108 88 93 92 94 87 85 81 74 64 51 50 47 44 62 66 333 296 8 24 5 6 353 6 11 6 2
267 268 260 233 234 268 253 253 269 280 289 300 307 27 99 105 105 105 99 91 81 74 79 89 89 92 81 68 59 51 44 45 41 4 20 36 25 13 17 19 9 8 12 355
278 283 277 254 253 270 259 265 267 276 293 294 301 76 97 96 97 94 87 83 83 76 70 70 76 73 67 51 39 45 31 31 15 14 47 50 28 13 5 6 16 28 17 341
316 279 272 252 237 237 254 250 263 272 280 284 289 127 117 106 98 93 80 68 82 84 71 63 72 74 62 50 37 38 26 18 8 10 24 40 15 355 347 356 35 34 355 338
282 273 273 277 290 281 262 267 269 273 279 286 296 172 124 101 91 81 73 66 76 77 77 66 61 63 58 50 32 24 17 15 7 356 10 32 352 349 345 359 15 13 358 343
288 275 276 278 283 284 283 281 279 269 271 281 284 290 104 105 96 87 77 70 68 64 58 57 58 51 48 34 18 22 12 352 359 8 18 22 13 30 29 7 12 21 353 333
272 290 289 279 270 274 282 280 275 276 285 275 274 344 74 95 93 87 78 70 62 50 44 40 53 45 30 31 20 24 8 358 15 8 4 12 20 48 43 26 31 11 347 342
258 272 283 277 277 274 268 283 278 284 285 287 283 9 81 89 89 97 92 81 69 53 51 47 32 25 24 46 45 38 348 332 14 1 357 11 29 40 30 10 25 4 358 346
263 273 273 276 277 264 277 332 312 307 13 28 80 93 85 82 86 91 89 80 65 61 54 46 24 21 55 61 47 28 350 355 12 1 348 13 28 32 20 4 1 350 343 333
224 249 265 271 264 252 245 277 298 282 57 55 80 85 77 81 106 102 86 81 72 62 60 58 43 45 53 53 46 27 8 9 2 353 0 10 14 14 4 353 346 335 327 315
214 223 246 262 270 266 263 336 314 258 155 75 89 90 84 99 166 104 79 81 82 71 66 55 52 52 55 50 48 26 2 1 355 358 9 5 6 4 343 329 326 325 312 302
219 222 236 255 260 263 18 32 326 257 78 64 81 87 85 63 43 78 94 89 90 82 73 60 53 57 55 39 36 17 2 1 352 356 357 354 353 336 328 333 321 305 296 292
257 253 239 247 256 255 49 72 53 65 72 80 83 82 72 70 77 81 85 84 91 88 75 56 48 50 50 30 14 358 356 354 358 355 348 346 338 320 327 321 308 300 292 294
261 296 309 333 63 93 85 85 88 94 75 83 90 94 93 86 85 90 89 81 84 88 71 45 25 37 36 354 328 318 332 344 348 344 335 334 325 317 317 308 295 290 293 298
290 358 267 248 123 132 113 110 120 112 82 84 96 101 103 96 92 96 92 78 70 43 31 28 349 333 320 296 281 281 307 328 331 326 318 308 300 294 305 302 305 311 321 323
314 308 290 254 177 156 117 108 110 103 110 112 109 107 113 110 94 98 100 82 56 40 16 353 314 298 298 285 270 273 282 288 303 305 300 297 291 289 294 296 302 303 333 330
291 290 282 296 352 306 126 121 125 132 131 132 129 111 98 103 93 89 92 89 66 25 0 339 329 316 302 294 279 283 284 282 296 298 294 295 289 285 281 278 296 331 279 261